Powrót do katalogu

STARLINK-34002

AktywnyŁącznośćVLEO
NORAD 63856·PAYLOAD·🇺🇸 United States

Wystrzelony May 7, 2025 z Cape Canaveral Space Force Station

Loading…

Następne Przeloty (najbliższe 24 godziny)

TLE

ŚwieżeSource: CelesTrak SupGP

Epoka: Sep 14, 2026, 22:26 UTC

1 63856C 25093W   26257.93520833  .00021604  00000+0  78255-3 0  2571
2 63856  43.0032  89.1864 0001600 272.6585 104.6806 15.27565566    14

Śledź STARLINK-34002 w czasie rzeczywistym z AllMySat

Download on the App Store